| time (UTC) | temp F | wind direction | speed MPH | gust MPH | rain 1hr in | rain 24hr in | rain mn in | humidity % | barometer mb |
| 20260506083018 | 46 | 36 | 10.0 | 19.0 | 0.01 | 0.04 | 0.04 | 83 | 1015.6 |
| 20260506081516 | 45 | 23 | 11.0 | 19.0 | 0.02 | 0.04 | 0.04 | 86 | 1015.6 |
| 20260506073012 | 43 | 325 | 6.0 | 14.0 | 0.02 | 0.03 | 0.03 | 88 | 1015.3 |
| 20260506071512 | 44 | 21 | 8.0 | 14.0 | 0.00 | 0.02 | 0.02 | 86 | 1015.2 |
| 20260506061506 | 43 | 22 | 6.0 | 14.0 | 0.00 | 0.02 | 0.02 | 89 | 1015.0 |
| 20260506050113 | 39 | 106 | 1.0 | 3.0 | 0.01 | 0.02 | 0.02 | 95 | 1014.9 |
| 20260506044600 | 39 | 102 | 1.0 | 3.0 | 0.01 | 0.02 | 0.02 | 95 | 1014.8 |
| 20260506043054 | 38 | 101 | 0.0 | 3.0 | 0.01 | 0.02 | 0.02 | 95 | 1014.9 |
| 20260506041556 | 37 | 89 | 1.0 | 3.0 | 0.00 | 0.01 | 0.01 | 94 | 1015.0 |
| 20260506040051 | 37 | 5 | 0.0 | 3.0 | 0.00 | 0.01 | 0.01 | 94 | 1015.0 |
| 20260506034551 | 37 | 23 | 0.0 | 2.0 | 0.00 | 0.01 | 0.01 | 94 | 1014.9 |
| 20260506033052 | 38 | 352 | 0.0 | 2.0 | 0.00 | 0.01 | 0.01 | 94 | 1014.8 |
| 20260506031559 | 39 | 352 | 2.0 | 9.0 | 0.00 | 0.01 | 0.01 | 94 | 1014.8 |
| 20260506030105 | 39 | 360 | 4.0 | 8.0 | 0.00 | 0.01 | 0.01 | 95 | 1015.0 |
| 20260506024545 | 38 | 310 | 1.0 | 6.0 | 0.01 | 0.01 | 0.01 | 94 | 1015.0 |
| 20260506023044 | 38 | 217 | 0.0 | 2.0 | 0.01 | 0.01 | 0.01 | 94 | 1014.9 |
| 20260506021543 | 39 | 217 | 0.0 | 2.0 | 0.01 | 0.01 | 0.01 | 94 | 1014.9 |
| 20260506020040 | 38 | 217 | 0.0 | 3.0 | 0.01 | 0.01 | 0.01 | 94 | 1015.1 |
| 20260506014538 | 37 | 218 | 1.0 | 3.0 | 0.00 | 0.00 | 0.00 | 94 | 1015.1 |
| 20260506013041 | 37 | 218 | 1.0 | 3.0 | 0.00 | 0.00 | 0.00 | 94 | 1015.1 |
| 20260506011534 | 36 | 225 | 2.0 | 3.0 | 0.00 | 0.00 | 0.00 | 94 | 1015.1 |
| 20260506010034 | 36 | 225 | 0.0 | 3.0 | 0.00 | 0.00 | 0.00 | 93 | 1015.2 |
| 20260506004550 | 35 | 225 | 0.0 | 3.0 | 0.00 | 0.00 | 0.00 | 93 | 1015.3 |
| 20260506003029 | 35 | 225 | 2.0 | 4.0 | 0.00 | 0.00 | 0.00 | 92 | 1015.3 |
| 20260506001527 | 36 | 337 | 1.0 | 3.0 | 0.00 | 0.00 | 0.00 | 92 | 1015.4 |
| 20260506000022 | 36 | 337 | 0.0 | 1.0 | 0.00 | 0.00 | 0.00 | 91 | 1015.3 |
| 20260505234539 | 38 | 337 | 0.0 | 3.0 | 0.00 | 0.00 | 0.00 | 92 | 1015.4 |
| 20260505233019 | 38 | 311 | 2.0 | 5.0 | 0.00 | 0.00 | 0.00 | 92 | 1015.4 |
| 20260505231516 | 39 | 321 | 2.0 | 5.0 | 0.00 | 0.00 | 0.00 | 91 | 1015.5 |
| 20260505230015 | 39 | 328 | 1.0 | 4.0 | 0.00 | 0.00 | 0.00 | 91 | 1015.6 |
| 20260505224520 | 39 | 337 | 0.0 | 3.0 | 0.00 | 0.00 | 0.00 | 90 | 1015.7 |
| 20260505223013 | 40 | 337 | 2.0 | 4.0 | 0.00 | 0.00 | 0.00 | 89 | 1015.6 |
| 20260505221513 | 41 | 10 | 3.0 | 5.0 | 0.00 | 0.00 | 0.00 | 89 | 1015.6 |
| 20260505220012 | 42 | 21 | 3.0 | 10.0 | 0.00 | 0.00 | 0.00 | 89 | 1015.6 |
| 20260505214514 | 42 | 10 | 5.0 | 11.0 | 0.00 | 0.00 | 0.00 | 89 | 1015.6 |
| 20260505213013 | 42 | 10 | 5.0 | 10.0 | 0.00 | 0.00 | 0.00 | 88 | 1015.6 |
| 20260505211511 | 43 | 358 | 6.0 | 12.0 | 0.00 | 0.00 | 0.00 | 88 | 1015.7 |
| 20260505210012 | 43 | 360 | 6.0 | 14.0 | 0.00 | 0.00 | 0.00 | 88 | 1015.7 |
| 20260505204522 | 43 | 5 | 5.0 | 14.0 | 0.00 | 0.00 | 0.00 | 88 | 1015.7 |
| 20260505203009 | 43 | 356 | 5.0 | 11.0 | 0.00 | 0.00 | 0.00 | 88 | 1015.8 |
| 20260505201508 | 43 | 26 | 8.0 | 13.0 | 0.00 | 0.00 | 0.00 | 87 | 1015.7 |
| 20260505200017 | 43 | 15 | 8.0 | 13.0 | 0.00 | 0.00 | 0.00 | 87 | 1015.7 |
| 20260505194505 | 44 | 21 | 8.0 | 15.0 | 0.00 | 0.00 | 0.00 | 86 | 1015.6 |
| 20260505193003 | 44 | 33 | 6.0 | 15.0 | 0.00 | 0.00 | 0.00 | 85 | 1015.5 |
| 20260505191503 | 45 | 32 | 8.0 | 16.0 | 0.00 | 0.00 | 0.00 | 84 | 1015.4 |
| 20260505190002 | 46 | 15 | 8.0 | 16.0 | 0.00 | 0.00 | 0.00 | 83 | 1015.4 |
| 20260505184501 | 46 | 23 | 9.0 | 15.0 | 0.00 | 0.00 | 0.00 | 82 | 1015.3 |
| 20260505183101 | 46 | 5 | 10.0 | 15.0 | 0.00 | 0.00 | 0.00 | 80 | 1015.2 |
| 20260505181600 | 47 | 10 | 10.0 | 19.0 | 0.00 | 0.00 | 0.00 | 82 | 1015.2 |
| 20260505174559 | 47 | 15 | 8.0 | 15.0 | 0.00 | 0.00 | 0.00 | 82 | 1015.2 |
| 20260505173059 | 48 | 31 | 8.0 | 18.0 | 0.00 | 0.00 | 0.00 | 82 | 1015.3 |
| 20260505171556 | 48 | 352 | 8.0 | 20.0 | 0.00 | 0.00 | 0.00 | 82 | 1015.1 |
| 20260505170058 | 48 | 25 | 9.0 | 17.0 | 0.00 | 0.00 | 0.00 | 83 | 1015.0 |
| 20260505164620 | 48 | 25 | 6.0 | 14.0 | 0.00 | 0.00 | 0.00 | 84 | 1014.9 |
| 20260505163054 | 48 | 10 | 9.0 | 19.0 | 0.00 | 0.00 | 0.00 | 84 | 1014.9 |
| 20260505161557 | 50 | 21 | 7.0 | 16.0 | 0.00 | 0.00 | 0.00 | 79 | 1014.8 |
| 20260505153050 | 51 | 360 | 8.0 | 18.0 | 0.00 | 0.00 | 0.00 | 72 | 1014.5 |
| 20260505151549 | 51 | 5 | 8.0 | 17.0 | 0.00 | 0.00 | 0.00 | 77 | 1014.4 |
| 20260505124544 | 52 | 15 | 11.0 | 17.0 | 0.00 | 0.00 | 0.00 | 83 | 1014.1 |
| 20260505123038 | 52 | 352 | 9.0 | 18.0 | 0.00 | 0.00 | 0.00 | 82 | 1014.0 |
| 20260505121541 | 52 | 21 | 9.0 | 16.0 | 0.00 | 0.00 | 0.00 | 80 | 1013.9 |
| 20260505120046 | 53 | 356 | 8.0 | 13.0 | 0.00 | 0.00 | 0.00 | 80 | 1013.8 |
| 20260505114536 | 52 | 356 | 7.0 | 13.0 | 0.00 | 0.00 | 0.00 | 78 | 1013.7 |
| 20260505113035 | 52 | 29 | 8.0 | 12.0 | 0.00 | 0.00 | 0.00 | 82 | 1013.6 |
| 20260505111535 | 52 | 59 | 7.0 | 12.0 | 0.00 | 0.00 | 0.00 | 80 | 1013.5 |
| 20260505101539 | 54 | 32 | 8.0 | 13.0 | 0.00 | 0.00 | 0.00 | 77 | 1013.5 |
| 20260505100033 | 56 | 27 | 6.0 | 12.0 | 0.00 | 0.00 | 0.00 | 74 | 1013.5 |
| 20260505094532 | 56 | 80 | 8.0 | 14.0 | 0.00 | 0.00 | 0.00 | 75 | 1013.4 |
| 20260505093031 | 57 | 5 | 1.0 | 8.0 | 0.00 | 0.00 | 0.00 | 69 | 1013.3 |
| 20260505091629 | 58 | 337 | 6.0 | 10.0 | 0.00 | 0.00 | 0.00 | 72 | 1013.3 |
| 20260505090152 | 56 | 15 | 1.0 | 9.0 | 0.00 | 0.00 | 0.00 | 73 | 1013.4 |
| 20260505084544 | 55 | 300 | 3.0 | 8.0 | 0.00 | 0.00 | 0.00 | 75 | 1013.5 |